Location: Champs
(48.8539°N, 2.6040°E)
Time: 22:07:14
(UTC+00:00)

SPOT 1 Rocket Y - Pass Details

Date: 19 August 2022
Orbit: 784 x 832 km, 98.5° (Epoch: 06 October)

Event Time Altitude Azimuth Distance (km) Brightness Sun altitude
Exits shadow 19:35:46 - 143° (SE) 2,827 7.9 -6.5°
Reaches altitude 10° 19:36:58 10° 140° (SE) 2,369 7.5 -6.7°
Maximum altitude 19:41:58 48° 68° (ENE) 1,053 6.0 -7.4°
Drops below altitude 10° 19:47:04 10° 355° (N) 2,415 8.6 -8.2°
Sets 19:49:30 0° 350° (N) 3,358 9.5 -8.5°
